Time,TemperatureF,DewpointF,PressureIn,WindDirection,WindDirectionDegrees,WindSpeedMPH,WindSpeedGustMPH,Humidity,HourlyPrecipIn,Conditions,Clouds,dailyrainin,SoftwareType,DateUTC
2013-06-26 00:07:00,66.2,64.0,29.74,West,259,8.0,9.0,91,0.00,,,0.00,weatherlink.com 1.10,2013-06-26 04:07:00,
2013-06-26 00:22:00,65.9,64.0,29.75,WSW,238,4.0,10.0,92,0.00,,,0.00,weatherlink.com 1.10,2013-06-26 04:22:00,
2013-06-26 00:52:00,65.7,63.0,29.74,SW,219,7.0,12.0,92,0.00,,,0.00,weatherlink.com 1.10,2013-06-26 04:52:00,
2013-06-26 01:07:00,65.7,63.0,29.74,WSW,254,8.0,13.0,92,0.00,,,0.00,weatherlink.com 1.10,2013-06-26 05:07:00,
2013-06-26 01:22:00,65.4,63.0,29.74,WSW,243,6.0,12.0,93,0.00,,,0.00,weatherlink.com 1.10,2013-06-26 05:22:00,
2013-06-26 01:37:00,65.2,63.0,29.74,WSW,249,6.0,11.0,92,0.00,,,0.00,weatherlink.com 1.10,2013-06-26 05:37:00,
2013-06-26 01:52:00,65.8,63.0,29.74,SW,234,5.0,12.0,90,0.00,,,0.00,weatherlink.com 1.10,2013-06-26 05:52:00,
2013-06-26 02:07:00,65.4,63.0,29.75,SW,227,6.0,8.0,90,0.00,,,0.00,weatherlink.com 1.10,2013-06-26 06:07:00,
2013-06-26 02:22:00,64.9,62.0,29.74,WSW,244,4.0,7.0,91,0.00,,,0.00,weatherlink.com 1.10,2013-06-26 06:22:00,
2013-06-26 02:37:00,64.1,62.0,29.73,SSW,193,0.0,4.0,92,0.00,,,0.00,weatherlink.com 1.10,2013-06-26 06:37:00,
2013-06-26 02:52:00,64.1,62.0,29.74,ESE,122,0.0,2.0,93,0.00,,,0.00,weatherlink.com 1.10,2013-06-26 06:52:00,
2013-06-26 03:07:00,63.9,62.0,29.74,SW,233,0.0,2.0,93,0.00,,,0.00,weatherlink.com 1.10,2013-06-26 07:07:00,
2013-06-26 03:22:00,63.7,62.0,29.73,SW,227,3.0,4.0,93,0.00,,,0.00,weatherlink.com 1.10,2013-06-26 07:22:00,
2013-06-26 03:37:00,63.9,62.0,29.73,WSW,242,0.0,4.0,93,0.00,,,0.00,weatherlink.com 1.10,2013-06-26 07:37:00,
2013-06-26 03:52:00,63.5,62.0,29.74,SSE,154,0.0,3.0,93,0.00,,,0.00,weatherlink.com 1.10,2013-06-26 07:52:00,
2013-06-26 04:07:00,63.1,61.0,29.73,ESE,123,1.0,1.0,93,0.00,,,0.00,weatherlink.com 1.10,2013-06-26 08:07:00,
2013-06-26 04:22:00,62.5,61.0,29.73,SE,134,0.0,2.0,94,0.00,,,0.00,weatherlink.com 1.10,2013-06-26 08:22:00,
2013-06-26 04:38:00,62.1,60.0,29.73,SE,135,0.0,0.0,94,0.00,,,0.00,weatherlink.com 1.10,2013-06-26 08:38:00,
2013-06-26 04:53:00,61.8,60.0,29.73,SE,131,0.0,2.0,94,0.00,,,0.00,weatherlink.com 1.10,2013-06-26 08:53:00,
2013-06-26 05:08:00,61.6,60.0,29.73,SE,131,0.0,0.0,95,0.00,,,0.00,weatherlink.com 1.10,2013-06-26 09:08:00,
2013-06-26 05:23:00,61.4,60.0,29.73,SE,132,0.0,0.0,95,0.00,,,0.00,weatherlink.com 1.10,2013-06-26 09:23:00,
2013-06-26 05:38:00,61.8,61.0,29.73,West,276,2.0,4.0,96,0.00,,,0.00,weatherlink.com 1.10,2013-06-26 09:38:00,
2013-06-26 05:53:00,62.4,61.0,29.73,West,269,0.0,6.0,96,0.00,,,0.00,weatherlink.com 1.10,2013-06-26 09:53:00,
2013-06-26 06:08:00,62.7,61.0,29.74,WNW,303,5.0,8.0,95,0.00,,,0.00,weatherlink.com 1.10,2013-06-26 10:08:00,
2013-06-26 06:23:00,64.2,62.0,29.74,WNW,298,3.0,8.0,92,0.00,,,0.00,weatherlink.com 1.10,2013-06-26 10:23:00,
2013-06-26 06:38:00,65.0,62.0,29.74,WNW,285,4.0,7.0,89,0.00,,,0.00,weatherlink.com 1.10,2013-06-26 10:38:00,
2013-06-26 06:53:00,65.2,62.0,29.75,NW,306,3.0,7.0,89,0.00,,,0.00,weatherlink.com 1.10,2013-06-26 10:53:00,
2013-06-26 07:08:00,65.6,62.0,29.76,NW,314,5.0,8.0,87,0.00,,,0.00,weatherlink.com 1.10,2013-06-26 11:08:00,
2013-06-26 07:23:00,66.1,63.0,29.75,North,5,0.0,4.0,88,0.00,,,0.00,weatherlink.com 1.10,2013-06-26 11:23:00,
2013-06-26 07:38:00,67.4,62.0,29.75,NW,324,0.0,3.0,84,0.00,,,0.00,weatherlink.com 1.10,2013-06-26 11:38:00,
2013-06-26 07:53:00,66.4,62.0,29.76,NNW,334,2.0,4.0,85,0.00,,,0.00,weatherlink.com 1.10,2013-06-26 11:53:00,
2013-06-26 08:08:00,66.5,61.0,29.76,NW,313,2.0,5.0,83,0.00,,,0.00,weatherlink.com 1.10,2013-06-26 12:08:00,
2013-06-26 08:23:00,67.0,61.0,29.76,NNW,332,4.0,4.0,82,0.00,,,0.00,weatherlink.com 1.10,2013-06-26 12:23:00,
2013-06-26 08:38:00,68.1,62.0,29.76,NNW,331,3.0,4.0,81,0.00,,,0.00,weatherlink.com 1.10,2013-06-26 12:38:00,
2013-06-26 08:53:00,69.4,63.0,29.77,NE,34,2.0,3.0,80,0.00,,,0.00,weatherlink.com 1.10,2013-06-26 12:53:00,
2013-06-26 09:08:00,70.3,62.0,29.76,NNE,33,1.0,3.0,75,0.00,,,0.00,weatherlink.com 1.10,2013-06-26 13:08:00,
2013-06-26 09:23:00,71.3,62.0,29.76,NNE,31,1.0,3.0,73,0.00,,,0.00,weatherlink.com 1.10,2013-06-26 13:23:00,
2013-06-26 09:38:00,71.1,62.0,29.76,NE,44,0.0,2.0,72,0.00,,,0.00,weatherlink.com 1.10,2013-06-26 13:38:00,
2013-06-26 09:53:00,72.5,62.0,29.76,NE,40,1.0,2.0,69,0.00,,,0.00,weatherlink.com 1.10,2013-06-26 13:53:00,
2013-06-26 10:08:00,70.4,63.0,29.76,North,9,4.0,4.0,76,0.00,,,0.00,weatherlink.com 1.10,2013-06-26 14:08:00,
2013-06-26 10:23:00,70.6,62.0,29.75,North,11,2.0,3.0,75,0.00,,,0.00,weatherlink.com 1.10,2013-06-26 14:23:00,
2013-06-26 10:38:00,69.9,61.0,29.76,NW,320,3.0,7.0,73,0.00,,,0.00,weatherlink.com 1.10,2013-06-26 14:38:00,
2013-06-26 10:53:00,68.8,61.0,29.77,NW,315,2.0,6.0,77,0.00,,,0.00,weatherlink.com 1.10,2013-06-26 14:53:00,
2013-06-26 11:08:00,69.9,62.0,29.76,ENE,69,1.0,6.0,75,0.00,,,0.00,weatherlink.com 1.10,2013-06-26 15:08:00,
2013-06-26 11:23:00,69.9,61.0,29.76,South,190,0.0,5.0,73,0.00,,,0.00,weatherlink.com 1.10,2013-06-26 15:23:00,
2013-06-26 11:38:00,70.0,62.0,29.77,ENE,71,2.0,5.0,76,0.00,,,0.00,weatherlink.com 1.10,2013-06-26 15:38:00,
2013-06-26 11:53:00,69.7,62.0,29.77,ENE,59,2.0,5.0,76,0.00,,,0.00,weatherlink.com 1.10,2013-06-26 15:53:00,
2013-06-26 12:08:00,70.2,62.0,29.77,NE,43,3.0,4.0,76,0.00,,,0.00,weatherlink.com 1.10,2013-06-26 16:08:00,
2013-06-26 12:23:00,72.4,63.0,29.77,North,5,5.0,6.0,71,0.00,,,0.00,weatherlink.com 1.10,2013-06-26 16:23:00,
2013-06-26 12:38:00,73.3,63.0,29.77,NE,41,1.0,7.0,69,0.00,,,0.00,weatherlink.com 1.10,2013-06-26 16:38:00,
2013-06-26 12:53:00,75.3,64.0,29.77,NNW,338,4.0,5.0,67,0.00,,,0.00,weatherlink.com 1.10,2013-06-26 16:53:00,
2013-06-26 13:08:00,74.8,64.0,29.76,NNE,17,2.0,3.0,68,0.00,,,0.00,weatherlink.com 1.10,2013-06-26 17:08:00,
2013-06-26 13:23:00,75.2,63.0,29.76,North,11,4.0,6.0,66,0.00,,,0.00,weatherlink.com 1.10,2013-06-26 17:23:00,
2013-06-26 13:38:00,74.9,63.0,29.76,North,355,2.0,5.0,67,0.00,,,0.00,weatherlink.com 1.10,2013-06-26 17:38:00,
2013-06-26 13:53:00,75.0,64.0,29.76,NNE,28,2.0,5.0,68,0.00,,,0.00,weatherlink.com 1.10,2013-06-26 17:53:00,
2013-06-26 14:08:00,76.0,64.0,29.75,NNE,28,3.0,5.0,67,0.00,,,0.00,weatherlink.com 1.10,2013-06-26 18:08:00,
2013-06-26 14:23:00,77.1,63.0,29.75,NNW,328,4.0,5.0,63,0.00,,,0.00,weatherlink.com 1.10,2013-06-26 18:23:00,
2013-06-26 14:38:00,76.8,64.0,29.75,North,355,3.0,4.0,65,0.00,,,0.00,weatherlink.com 1.10,2013-06-26 18:38:00,
2013-06-26 14:53:00,78.0,66.0,29.75,NNW,347,2.0,4.0,67,0.00,,,0.00,weatherlink.com 1.10,2013-06-26 18:53:00,
2013-06-26 15:23:00,80.0,66.0,29.75,NNE,24,6.0,7.0,63,0.00,,,0.00,weatherlink.com 1.10,2013-06-26 19:23:00,
2013-06-26 15:38:00,79.3,67.0,29.74,NE,34,4.0,6.0,66,0.00,,,0.00,weatherlink.com 1.10,2013-06-26 19:38:00,
2013-06-26 15:53:00,79.5,68.0,29.73,NNE,29,4.0,8.0,68,0.00,,,0.00,weatherlink.com 1.10,2013-06-26 19:53:00,
2013-06-26 16:08:00,80.6,66.0,29.73,NNE,27,8.0,8.0,61,0.00,,,0.00,weatherlink.com 1.10,2013-06-26 20:08:00,
2013-06-26 16:23:00,81.2,65.0,29.73,NE,44,2.0,6.0,59,0.00,,,0.00,weatherlink.com 1.10,2013-06-26 20:23:00,
2013-06-26 16:38:00,82.1,65.0,29.73,NNW,342,3.0,6.0,57,0.00,,,0.00,weatherlink.com 1.10,2013-06-26 20:38:00,
2013-06-26 16:53:00,82.2,66.0,29.72,North,360,3.0,6.0,59,0.00,,,0.00,weatherlink.com 1.10,2013-06-26 20:53:00,
2013-06-26 17:08:00,81.8,63.0,29.72,NNE,18,5.0,5.0,54,0.00,,,0.00,weatherlink.com 1.10,2013-06-26 21:08:00,
2013-06-26 17:23:00,79.7,65.0,29.72,NW,308,4.0,6.0,62,0.00,,,0.00,weatherlink.com 1.10,2013-06-26 21:23:00,
2013-06-26 17:38:00,79.5,64.0,29.72,NNE,12,2.0,4.0,60,0.00,,,0.00,weatherlink.com 1.10,2013-06-26 21:38:00,
2013-06-26 17:53:00,82.4,63.0,29.72,North,5,2.0,4.0,53,0.00,,,0.00,weatherlink.com 1.10,2013-06-26 21:53:00,
2013-06-26 18:08:00,83.4,65.0,29.72,North,355,0.0,3.0,54,0.00,,,0.00,weatherlink.com 1.10,2013-06-26 22:08:00,
2013-06-26 18:23:00,82.1,63.0,29.72,NW,317,1.0,4.0,53,0.00,,,0.00,weatherlink.com 1.10,2013-06-26 22:23:00,
2013-06-26 18:38:00,80.6,63.0,29.72,SE,138,1.0,4.0,55,0.00,,,0.00,weatherlink.com 1.10,2013-06-26 22:38:00,
2013-06-26 18:54:00,81.3,62.0,29.71,SSE,150,2.0,6.0,52,0.00,,,0.00,weatherlink.com 1.10,2013-06-26 22:54:00,
2013-06-26 19:09:00,81.0,61.0,29.71,SSE,159,2.0,4.0,50,0.00,,,0.00,weatherlink.com 1.10,2013-06-26 23:09:00,
2013-06-26 19:24:00,80.9,59.0,29.71,SSE,155,2.0,5.0,48,0.00,,,0.00,weatherlink.com 1.10,2013-06-26 23:24:00,
2013-06-26 19:39:00,79.5,60.0,29.71,SSE,167,1.0,5.0,51,0.00,,,0.00,weatherlink.com 1.10,2013-06-26 23:39:00,
2013-06-26 19:54:00,78.1,60.0,29.71,SSE,151,2.0,6.0,54,0.00,,,0.00,weatherlink.com 1.10,2013-06-26 23:54:00,
2013-06-26 20:09:00,76.6,59.0,29.71,SSE,153,2.0,7.0,54,0.00,,,0.00,weatherlink.com 1.10,2013-06-27 00:09:00,
2013-06-26 20:24:00,74.5,58.0,29.71,SSE,165,1.0,5.0,57,0.00,,,0.00,weatherlink.com 1.10,2013-06-27 00:24:00,
2013-06-26 20:39:00,73.5,59.0,29.70,SE,146,3.0,4.0,60,0.00,,,0.00,weatherlink.com 1.10,2013-06-27 00:39:00,
2013-06-26 20:54:00,72.4,59.0,29.71,SSE,159,1.0,5.0,63,0.00,,,0.00,weatherlink.com 1.10,2013-06-27 00:54:00,
2013-06-26 21:09:00,71.5,59.0,29.70,South,184,2.0,8.0,65,0.00,,,0.00,weatherlink.com 1.10,2013-06-27 01:09:00,
2013-06-26 21:24:00,70.4,59.0,29.70,South,170,2.0,5.0,68,0.00,,,0.00,weatherlink.com 1.10,2013-06-27 01:24:00,
2013-06-26 21:39:00,69.8,59.0,29.71,SSW,195,5.0,7.0,69,0.00,,,0.00,weatherlink.com 1.10,2013-06-27 01:39:00,
2013-06-26 21:54:00,68.8,60.0,29.70,SE,144,4.0,8.0,73,0.00,,,0.00,weatherlink.com 1.10,2013-06-27 01:54:00,
2013-06-26 22:09:00,68.3,61.0,29.71,SSE,153,2.0,9.0,77,0.00,,,0.00,weatherlink.com 1.10,2013-06-27 02:09:00,
2013-06-26 22:24:00,68.5,61.0,29.72,SW,214,5.0,9.0,78,0.00,,,0.00,weatherlink.com 1.10,2013-06-27 02:24:00,
2013-06-26 22:39:00,68.9,61.0,29.72,South,186,3.0,7.0,76,0.00,,,0.00,weatherlink.com 1.10,2013-06-27 02:39:00,
2013-06-26 22:54:00,69.1,60.0,29.71,South,179,2.0,8.0,73,0.00,,,0.00,weatherlink.com 1.10,2013-06-27 02:54:00,
2013-06-26 23:09:00,70.5,60.0,29.72,South,182,1.0,9.0,70,0.00,,,0.00,weatherlink.com 1.10,2013-06-27 03:09:00,
2013-06-26 23:24:00,71.1,60.0,29.72,SW,223,4.0,11.0,69,0.00,,,0.00,weatherlink.com 1.10,2013-06-27 03:24:00,
2013-06-26 23:39:00,71.5,60.0,29.71,SSW,213,6.0,13.0,68,0.00,,,0.00,weatherlink.com 1.10,2013-06-27 03:39:00,
2013-06-26 23:54:00,71.3,60.0,29.71,SE,146,3.0,7.0,68,0.00,,,0.00,weatherlink.com 1.10,2013-06-27 03:54:00,